Regional Weather Roundup
Issued by NWS

Home | Current Version | Previous Version | Graphics & Text | Print | Product List | Glossary On
Versions: 1 2 3 4 5 6 7 8 9 10 11 12 13 14 15 16 17 18 19 20 21 22 23 24 25 26 27
000
ASUS45 KTFX 050810
RWRMT
MONTANA REGIONAL WEATHER ROUNDUP
NATIONAL WEATHER SERVICE GREAT FALLS MT
100 AM MST MON DEC 05 2016

NOTE: "FAIR" INDICATES FEW OR NO CLOUDS BELOW 12000 FEET WITH NO
SIGNIFICANT WEATHER AND/OR OBSTRUCTIONS TO VISIBILITY.

MTZ001>007-043-050900-
WEST OF THE DIVIDE

CITY           SKY/WX    TMP DP  RH WIND       PRES   REMARKS
KALISPELL      LGT SNOW  24  20  84 N16       29.77R FOG     WCI  11
MISSOULA       LGT SNOW  26  24  92 E3        29.82R FOG
BUTTE          CLOUDY    17   3  54 N5        29.69R
MULLAN PASS    CLOUDY    11   8  88 NW10G21   29.69R WCI  -3
ANACONDA         N/A     21   7  53 W14G24    29.72F WCI   8
DEER LODGE       N/A     25   7  46 W9G16     29.74S WCI  15
EUREKA           N/A     25  25 100 CALM      29.81R
HAMILTON         N/A     28   7  40 CALM      29.82F
LIBBY            N/A     28  23  80 N3        29.80R
RONAN            N/A     30  20  66 CALM      29.82R
$$

MTZ008-052>055-050900-
SOUTHWEST MONTANA

CITY           SKY/WX    TMP DP  RH WIND       PRES   REMARKS
BOZEMAN        CLOUDY    29  14  53 W16       29.66R WCI  17
DILLON         CLOUDY    23   1  38 NW16G24   29.70R WCI  10
W YELLOWSTONE  CLOUDY    25  19  80 W5        29.56S
ENNIS          CLOUDY    25   5  42 VRB3      29.74R
THREE FORKS      N/A     30  30 100 W12       29.72R WCI  20
$$

MTZ009-010-012-014-046-048-049-054-050900-
EAST SLOPES AND CENTRAL MONTANA

CITY           SKY/WX    TMP DP  RH WIND       PRES   REMARKS
CUT BANK       CLOUDY    18  13  80 N12       29.77R WCI   5
GREAT FALLS    LGT SNOW  20  16  84 NW8       29.78R FOG     WCI  10
MALMSTROM AFB  FLURRIES  20  18  89 NW9       29.78R WCI  10
HELENA         LGT SNOW  23  19  85 NW9       29.74R FOG     WCI  13
AUGUSTA        LGT SNOW  17  15  93 N8        29.74R VSB 1   WCI   7
BOWMANS CRNR   LGT SNOW  17  15  95 N10       29.72R WCI   4
CHOTEAU        FOG       19  18  93 NW8       29.79R VSB 1   WCI   9
FAIRFIELD      LGT SNOW  19  15  88 NW13      29.76R VSB 5/8 WCI   5
POWER          FLURRIES  19  16  88 NW13      29.75R WCI   5
RAYNESFORD     LGT SNOW  19  17  93 W12       29.73R WCI   6
ULM            LGT SNOW  20  18  90 N15       29.78R WCI   6
$$

MTZ011-013-016-021-045-047-050-051-050900-
NORTH CENTRAL MONTANA

CITY           SKY/WX    TMP DP  RH WIND       PRES   REMARKS
HAVRE          FLURRIES  23  18  81 NW12      29.74R WCI  12
LEWISTOWN      CLOUDY    19  17  92 NW15G24   29.67R WCI   5
N BAR RANCH    FLURRIES  21  14  73 NW23G41   29.60R WCI   5
CHINOOK          N/A     23  19  86 W13       29.73R WCI  11
DENTON         LGT SNOW  20  17  89 NW18G36   29.68R WCI   5
GEYSER         MOCLDY    20  14  75 N7        29.70R WCI  11
GRASS RANGE    FLURRIES  22  18  85 W25G36    29.60R WCI   5
JUDITH GAP     FLURRIES  18  15  89 N30       29.61R WCI  -2
ROY            FLURRIES  22  21  94 MISG      29.63R
STANFORD       LGT SNOW  18  17  93 NW18      29.68R WCI   2
WINIFRED       FLURRIES  20  19  93 MISG      29.67R
$$

MTZ017>020-022>027-061-062-050900-
NORTHEAST MONTANA

CITY           SKY/WX    TMP DP  RH WIND       PRES   REMARKS
GLASGOW        MIX PCPN  28  26  92 NW26G32   29.53R WCI  13
JORDAN           N/A     30  25  81 NW20G29   29.57R WCI  17
SIDNEY         CLOUDY    27  22  81 S7        29.48S WCI  19
WOLF POINT     LGT SNOW  34  32  92 W6        29.50F FOG     WCI  29
PLENTYWOOD       N/A     27  27 100 CALM      29.49S VSB 1/2
POPLAR           N/A     28  27  93 SW3       29.51S
$$

MTZ028>42-056>058-050900-
SOUTHCENTRAL AND SOUTHEAST MONTANA

CITY           SKY/WX    TMP DP  RH WIND       PRES   REMARKS
BAKER          PTCLDY    30  25  81 SW5       29.51F
BILLINGS       CLOUDY    30  21  69 NW12      29.62R WCI  20
LIVINGSTON     LGT SNOW  26  19  74 NW15      29.64R WCI  14
MILES CITY     CLOUDY    31  27  85 W9        29.56R WCI  23
BIG TIMBER     CLOUDY    28  16  59 W23G33    29.62S WCI  14
FORSYTH          N/A     32  28  86 W9        29.59R WCI  24
HARLOWTON      MOCLDY    22  14  72 N22G28    29.60R WCI   6
LAUREL           N/A     31  12  45 NW5       29.64R
ROUNDUP          N/A     29  14  53 W20       29.55R WCI  16
$$

REGIONAL REPORTS...DAKOTAS

CITY           SKY/WX    TMP DP  RH WIND       PRES   REMARKS
WILLISTON      LGT SNOW  29  26  89 CALM      29.48F FOG
MINOT          CLOUDY    14  11  87 NE6       29.55F WCI   5
DICKINSON      CLOUDY    26  21  81 S3        29.49S
BEACH          CLOUDY    32  30  93 W10       29.52S WCI  24
CROSBY         MOCLDY    25  23  93 E6        29.52S WCI  18
TIOGA          FLURRIES  30  30 100 SE13      29.49F WCI  20
WATFORD CITY   FLURRIES  32  27  80 S16       29.47F WCI  21
BISMARCK       CLOUDY    18  16  92 NE9       29.60F WCI   7
GRAND FORKS    CLOUDY    27  24  89 W7        29.70R WCI  19
FARGO          CLEAR     22  18  85 CALM      29.71F
BUFFALO SD       N/A     29  22  75 NW10      29.45S WCI  20
RAPID CITY     CLOUDY    33  20  58 E7        29.50S WCI  27
$$

REGIONAL REPORTS...WYOMING/IDAHO/WASHINGTON

CITY           SKY/WX    TMP DP  RH WIND       PRES   REMARKS
GILLETTE       LGT SNOW  30  29  96 NW21      29.54R VSB 1   WCI  17
SHERIDAN       FLURRIES  31  26  82 NW20G25   29.60S WCI  19
BUFFALO WY     LGT SNOW  30  25  81 NW21G30   29.56R VSB 3/4 WCI  17
CODY           FLURRIES  25  22  88 N16G25    29.57S WCI  12
YELLOWSTONE LA   N/A     21  16  81 W8G17     29.53F WCI  11
IDAHO FALLS    CLOUDY    32  28  85 SW24G32   29.67R WCI  19
SALMON         PTCLDY    25  12  58 NW13G20   29.83S WCI  13
BOISE          CLEAR     28  18  66 N9        30.03R WCI  19
SPOKANE        CLEAR     24  13  62 W9        29.96R WCI  14
$$

REGIONAL REPORTS...ALBERTA

CITY           SKY/WX    TMP DP  RH WIND       PRES   REMARKS
EDMONTON       CLOUDY     3  -2  78 NW10G18   29.96R WCI -12
CALGARY        PTCLDY     9   3  78 N14       29.82R WCI  -8
LETHBRIDGE     CLOUDY    19  12  73 N15       29.85R WCI   5
MEDICINE HAT   CLOUDY    19  12  73 NW16G23   29.79R WCI   5
WATERTON GATE    N/A     16  14  93 NW1         N/A
CARDSTON         N/A     18  16  93 W3          N/A
MILK RIVER       N/A     19  14  79 N17         N/A  WCI   4
$$

REGIONAL REPORTS...SASKATCHEWAN

CITY           SKY/WX    TMP DP  RH WIND       PRES   REMARKS
SWIFT CURRENT  CLOUDY    18  16  93 NW17      29.62R WCI   2
REGINA         CLOUDY    16  14  93 NW5       29.57S
SASKATOON      CLOUDY    23  19  86 NW12      29.66R WCI  12
CYPRESS HILLS    N/A     14  10  85 NW13G23     N/A  WCI   0
VAL MARIE        N/A     21  19  93 N24G30      N/A  WCI   4
ROCKGLEN         N/A     23  23 100 N17         N/A  WCI   9
ASSINIBOIA       N/A      7   0  72 NW22G30     N/A  WCI -14
$$




USA.gov is the U.S. government's official web portal to all federal, state and local government web resources and services.